Location: Gilevgi
(36.8751°N, 30.0581°E)
Time: 08:59:40
(UTC+00:00)

CZ-2D R/B - Pass Details

Date: 11 March 2026
Orbit: 524 x 594 km, 98.0° (Epoch: 20 April)

Event Time Altitude Azimuth Distance (km) Brightness Sun altitude
Rises 17:26:56 0° 195° (SSW) 2,784 7.0 -17.5°
Reaches altitude 10° 17:29:22 10° 209° (SSW) 1,900 6.3 -18.0°
Maximum altitude 17:32:45 24° 264° (W) 1,228 5.9 -18.6°
Drops below altitude 10° 17:36:11 10° 319° (NW) 1,931 6.8 -19.3°
Sets 17:38:42 0° 333° (NNW) 2,840 7.5 -19.8°
